contact:dominique.lefevre@mio.osupytheas.fr, maurice.libes@osupytheas.fr, didier.mallarino@osupytheas.fr
Project:EMSO http://www.emso-fr.org/EMSO-France
Depth: 2436.0 m
Title:EMSO Ligure Ouest : Data MII capteur MICROCAT
DateTime_Computer,Latitude,Longitude,Temperature,Conductivity,Pressure,DateTime_Instrument
DateTime_Computer,Latitude,Longitude,degC,S m-1,dbar,DateTime_Instrument
2020-07-31T00:02:39Z,42.805,6.029,13.2982,4.59986,2470.1,2020-7-31T02:03:27Z
2020-07-31T00:05:43Z,42.805,6.029,13.2981,4.59986,2470.1,2020-7-31T02:06:30Z
2020-07-31T00:08:46Z,42.805,6.029,13.2979,4.59986,2470.11,2020-7-31T02:09:34Z
2020-07-31T00:11:49Z,42.805,6.029,13.2977,4.59986,2470.087,2020-7-31T02:12:37Z
2020-07-31T00:14:52Z,42.805,6.029,13.2983,4.59988,2470.124,2020-7-31T02:15:40Z
2020-07-31T00:17:55Z,42.805,6.029,13.2981,4.59990,2470.087,2020-7-31T02:18:43Z
2020-07-31T00:20:59Z,42.805,6.029,13.2985,4.59992,2470.087,2020-7-31T02:21:47Z
2020-07-31T00:24:02Z,42.805,6.029,13.2978,4.59991,2470.087,2020-7-31T02:24:50Z
2020-07-31T00:27:05Z,42.805,6.029,13.2982,4.59984,2470.147,2020-7-31T02:27:53Z
2020-07-31T00:30:09Z,42.805,6.029,13.2979,4.59986,2470.11,2020-7-31T02:30:57Z
2020-07-31T00:33:12Z,42.805,6.029,13.2979,4.59986,2470.087,2020-7-31T02:34:00Z
2020-07-31T00:36:15Z,42.805,6.029,13.2974,4.59986,2470.087,2020-7-31T02:37:03Z
2020-07-31T00:39:18Z,42.805,6.029,13.2980,4.59983,2470.087,2020-7-31T02:40:06Z
2020-07-31T00:42:22Z,42.805,6.029,13.2976,4.59983,2470.087,2020-7-31T02:43:10Z
2020-07-31T00:45:25Z,42.805,6.029,13.2979,4.59984,2470.11,2020-7-31T02:46:13Z
2020-07-31T00:48:28Z,42.805,6.029,13.2976,4.59989,2470.124,2020-7-31T02:49:16Z
2020-07-31T00:51:31Z,42.805,6.029,13.2979,4.59985,2470.11,2020-7-31T02:52:19Z
2020-07-31T00:54:35Z,42.805,6.029,13.2976,4.59988,2470.133,2020-7-31T02:55:23Z
2020-07-31T00:57:38Z,42.805,6.029,13.2979,4.59991,2470.124,2020-7-31T02:58:26Z
2020-07-31T01:00:41Z,42.805,6.029,13.2975,4.59986,2470.11,2020-7-31T03:01:29Z
2020-07-31T01:03:44Z,42.805,6.029,13.2981,4.59983,2470.087,2020-7-31T03:04:32Z
2020-07-31T01:06:48Z,42.805,6.029,13.2979,4.59987,2470.124,2020-7-31T03:07:36Z
2020-07-31T01:09:51Z,42.805,6.029,13.2981,4.59999,2470.11,2020-7-31T03:10:39Z
2020-07-31T01:12:54Z,42.805,6.029,13.2984,4.59985,2470.124,2020-7-31T03:13:42Z
2020-07-31T01:15:58Z,42.805,6.029,13.2977,4.59994,2470.147,2020-7-31T03:16:46Z
2020-07-31T01:19:01Z,42.805,6.029,13.2981,4.59991,2470.11,2020-7-31T03:19:49Z
2020-07-31T01:22:04Z,42.805,6.029,13.2979,4.59991,2470.133,2020-7-31T03:22:52Z
2020-07-31T01:25:07Z,42.805,6.029,13.2979,4.59986,2470.147,2020-7-31T03:25:55Z
2020-07-31T01:28:11Z,42.805,6.029,13.2976,4.59996,2470.147,2020-7-31T03:28:59Z
2020-07-31T01:31:14Z,42.805,6.029,13.2978,4.59983,2470.147,2020-7-31T03:32:02Z
2020-07-31T01:34:17Z,42.805,6.029,13.2976,4.59986,2470.11,2020-7-31T03:35:05Z
2020-07-31T01:37:20Z,42.805,6.029,13.2978,4.59986,2470.133,2020-7-31T03:38:08Z
2020-07-31T01:40:24Z,42.805,6.029,13.2984,4.59995,2470.124,2020-7-31T03:41:12Z
2020-07-31T01:43:27Z,42.805,6.029,13.2979,4.59996,2470.11,2020-7-31T03:44:15Z
2020-07-31T01:46:30Z,42.805,6.029,13.2982,4.59989,2470.124,2020-7-31T03:47:18Z
2020-07-31T01:49:34Z,42.805,6.029,13.2977,4.59989,2470.147,2020-7-31T03:50:22Z
2020-07-31T01:52:37Z,42.805,6.029,13.2982,4.59992,2470.133,2020-7-31T03:53:25Z
2020-07-31T01:55:40Z,42.805,6.029,13.2982,4.59990,2470.133,2020-7-31T03:56:28Z
2020-07-31T01:58:43Z,42.805,6.029,13.2979,4.59984,2470.133,2020-7-31T03:59:31Z
2020-07-31T02:01:47Z,42.805,6.029,13.2985,4.59993,2470.133,2020-7-31T04:02:35Z
2020-07-31T02:04:50Z,42.805,6.029,13.2983,4.59996,2470.11,2020-7-31T04:05:38Z
2020-07-31T02:07:53Z,42.805,6.029,13.2976,4.59986,2470.133,2020-7-31T04:08:41Z
2020-07-31T02:10:57Z,42.805,6.029,13.2984,4.59985,2470.156,2020-7-31T04:11:45Z
2020-07-31T02:14:00Z,42.805,6.029,13.2980,4.59991,2470.11,2020-7-31T04:14:48Z
2020-07-31T02:17:03Z,42.805,6.029,13.2977,4.59984,2470.156,2020-7-31T04:17:51Z
2020-07-31T02:20:06Z,42.805,6.029,13.2981,4.59997,2470.11,2020-7-31T04:20:54Z
2020-07-31T02:23:10Z,42.805,6.029,13.2979,4.59996,2470.156,2020-7-31T04:23:58Z
2020-07-31T02:26:13Z,42.805,6.029,13.2976,4.59988,2470.133,2020-7-31T04:27:01Z
2020-07-31T02:29:16Z,42.805,6.029,13.2979,4.59999,2470.171,2020-7-31T04:30:04Z
2020-07-31T02:32:19Z,42.805,6.029,13.2986,4.60000,2470.156,2020-7-31T04:33:07Z
2020-07-31T02:35:23Z,42.805,6.029,13.2983,4.59986,2470.156,2020-7-31T04:36:11Z
2020-07-31T02:38:26Z,42.805,6.029,13.2982,4.59986,2470.171,2020-7-31T04:39:14Z
2020-07-31T02:41:29Z,42.805,6.029,13.2977,4.59986,2470.171,2020-7-31T04:42:17Z
2020-07-31T02:44:32Z,42.805,6.029,13.2982,4.59988,2470.133,2020-7-31T04:45:20Z
2020-07-31T02:47:35Z,42.805,6.029,13.2977,4.59985,2470.147,2020-7-31T04:48:23Z
2020-07-31T02:50:39Z,42.805,6.029,13.2978,4.59986,2470.156,2020-7-31T04:51:27Z
2020-07-31T02:53:42Z,42.805,6.029,13.2980,4.59984,2470.156,2020-7-31T04:54:30Z
2020-07-31T02:56:45Z,42.805,6.029,13.2975,4.59981,2470.171,2020-7-31T04:57:33Z
2020-07-31T02:59:49Z,42.805,6.029,13.2979,4.59987,2470.156,2020-7-31T05:00:37Z
2020-07-31T03:02:52Z,42.805,6.029,13.2982,4.59988,2470.171,2020-7-31T05:03:40Z
2020-07-31T03:05:55Z,42.805,6.029,13.2982,4.59987,2470.18,2020-7-31T05:06:43Z
2020-07-31T03:08:58Z,42.805,6.029,13.2981,4.59991,2470.156,2020-7-31T05:09:46Z
2020-07-31T03:12:01Z,42.805,6.029,13.2979,4.59997,2470.194,2020-7-31T05:12:49Z
2020-07-31T03:15:05Z,42.805,6.029,13.2983,4.60001,2470.156,2020-7-31T05:15:53Z
2020-07-31T03:18:08Z,42.805,6.029,13.2983,4.59990,2470.156,2020-7-31T05:18:56Z
2020-07-31T03:21:11Z,42.805,6.029,13.2979,4.59986,2470.18,2020-7-31T05:21:59Z
2020-07-31T03:24:15Z,42.805,6.029,13.2979,4.59983,2470.171,2020-7-31T05:25:03Z
2020-07-31T03:27:18Z,42.805,6.029,13.2977,4.59985,2470.133,2020-7-31T05:28:06Z
2020-07-31T03:30:22Z,42.805,6.029,13.2981,4.59986,2470.18,2020-7-31T05:31:10Z
2020-07-31T03:33:25Z,42.805,6.029,13.2986,4.59996,2470.18,2020-7-31T05:34:13Z
2020-07-31T03:36:28Z,42.805,6.029,13.2980,4.59991,2470.171,2020-7-31T05:37:16Z
2020-07-31T03:39:31Z,42.805,6.029,13.2982,4.59993,2470.171,2020-7-31T05:40:19Z
2020-07-31T03:42:35Z,42.805,6.029,13.2980,4.59986,2470.156,2020-7-31T05:43:23Z
2020-07-31T03:45:38Z,42.805,6.029,13.2980,4.59986,2470.18,2020-7-31T05:46:26Z
2020-07-31T03:48:41Z,42.805,6.029,13.2980,4.59988,2470.18,2020-7-31T05:49:29Z
2020-07-31T03:51:44Z,42.805,6.029,13.2975,4.59986,2470.18,2020-7-31T05:52:32Z
2020-07-31T03:54:48Z,42.805,6.029,13.2977,4.59985,2470.156,2020-7-31T05:55:36Z
2020-07-31T03:57:51Z,42.805,6.029,13.2979,4.59991,2470.18,2020-7-31T05:58:39Z
2020-07-31T04:00:54Z,42.805,6.029,13.2979,4.60004,2470.156,2020-7-31T06:01:42Z
2020-07-31T04:03:57Z,42.805,6.029,13.2979,4.59996,2470.171,2020-7-31T06:04:45Z
2020-07-31T04:07:00Z,42.805,6.029,13.2983,4.59998,2470.156,2020-7-31T06:07:48Z
2020-07-31T04:10:04Z,42.805,6.029,13.2982,4.59992,2470.156,2020-7-31T06:10:52Z
2020-07-31T04:13:07Z,42.805,6.029,13.2983,4.59992,2470.133,2020-7-31T06:13:55Z
2020-07-31T04:16:10Z,42.805,6.029,13.2983,4.59988,2470.171,2020-7-31T06:16:58Z
2020-07-31T04:19:13Z,42.805,6.029,13.2979,4.59990,2470.194,2020-7-31T06:20:01Z
2020-07-31T04:22:17Z,42.805,6.029,13.2981,4.59998,2470.156,2020-7-31T06:23:05Z
2020-07-31T04:25:20Z,42.805,6.029,13.2979,4.59987,2470.171,2020-7-31T06:26:08Z
2020-07-31T04:28:23Z,42.805,6.029,13.2980,4.59989,2470.194,2020-7-31T06:29:11Z
2020-07-31T04:31:26Z,42.805,6.029,13.2980,4.59989,2470.171,2020-7-31T06:32:14Z
2020-07-31T04:34:30Z,42.805,6.029,13.2981,4.59986,2470.18,2020-7-31T06:35:18Z
2020-07-31T04:37:33Z,42.805,6.029,13.2982,4.59992,2470.133,2020-7-31T06:38:21Z
2020-07-31T04:40:36Z,42.805,6.029,13.2977,4.59999,2470.156,2020-7-31T06:41:24Z
2020-07-31T04:43:39Z,42.805,6.029,13.2981,4.59991,2470.194,2020-7-31T06:44:27Z
2020-07-31T04:46:42Z,42.805,6.029,13.2986,4.59988,2470.203,2020-7-31T06:47:30Z
2020-07-31T04:49:46Z,42.805,6.029,13.2980,4.59986,2470.18,2020-7-31T06:50:34Z
2020-07-31T04:52:49Z,42.805,6.029,13.2980,4.59991,2470.18,2020-7-31T06:53:37Z
2020-07-31T04:55:52Z,42.805,6.029,13.2979,4.59990,2470.194,2020-7-31T06:56:40Z
2020-07-31T04:58:56Z,42.805,6.029,13.2980,4.59994,2470.18,2020-7-31T06:59:44Z
2020-07-31T05:01:59Z,42.805,6.029,13.2983,4.59984,2470.156,2020-7-31T07:02:47Z
2020-07-31T05:05:02Z,42.805,6.029,13.2978,4.59982,2470.194,2020-7-31T07:05:50Z
2020-07-31T05:08:06Z,42.805,6.029,13.2976,4.59985,2470.18,2020-7-31T07:08:54Z
2020-07-31T05:11:09Z,42.805,6.029,13.2981,4.59995,2470.171,2020-7-31T07:11:57Z
2020-07-31T05:14:12Z,42.805,6.029,13.2978,4.59986,2470.194,2020-7-31T07:15:00Z
2020-07-31T05:17:16Z,42.805,6.029,13.2987,4.59991,2470.156,2020-7-31T07:18:04Z
2020-07-31T05:20:19Z,42.805,6.029,13.2978,4.59990,2470.194,2020-7-31T07:21:07Z
2020-07-31T05:23:22Z,42.805,6.029,13.2981,4.59990,2470.147,2020-7-31T07:24:10Z
2020-07-31T05:26:25Z,42.805,6.029,13.2986,4.60007,2470.18,2020-7-31T07:27:13Z
2020-07-31T05:29:29Z,42.805,6.029,13.2979,4.59990,2470.171,2020-7-31T07:30:17Z
2020-07-31T05:32:32Z,42.805,6.029,13.2976,4.59988,2470.156,2020-7-31T07:33:20Z
2020-07-31T05:35:35Z,42.805,6.029,13.2979,4.59994,2470.171,2020-7-31T07:36:23Z
2020-07-31T05:38:38Z,42.805,6.029,13.2977,4.59991,2470.147,2020-7-31T07:39:26Z
2020-07-31T05:41:41Z,42.805,6.029,13.2977,4.59999,2470.147,2020-7-31T07:42:29Z
2020-07-31T05:44:45Z,42.805,6.029,13.2974,4.59988,2470.133,2020-7-31T07:45:33Z
2020-07-31T05:47:48Z,42.805,6.029,13.2983,4.59985,2470.133,2020-7-31T07:48:36Z
2020-07-31T05:50:51Z,42.805,6.029,13.2979,4.59988,2470.171,2020-7-31T07:51:39Z
2020-07-31T05:53:54Z,42.805,6.029,13.2982,4.59983,2470.171,2020-7-31T07:54:42Z
2020-07-31T05:56:58Z,42.805,6.029,13.2975,4.59988,2470.147,2020-7-31T07:57:46Z
2020-07-31T06:00:01Z,42.805,6.029,13.2980,4.59988,2470.133,2020-7-31T08:00:49Z
2020-07-31T06:03:04Z,42.805,6.029,13.2981,4.59995,2470.133,2020-7-31T08:03:52Z
2020-07-31T06:06:07Z,42.805,6.029,13.2990,4.59994,2470.124,2020-7-31T08:06:55Z
2020-07-31T06:09:11Z,42.805,6.029,13.2978,4.59992,2470.156,2020-7-31T08:09:59Z
2020-07-31T06:12:14Z,42.805,6.029,13.2974,4.59985,2470.156,2020-7-31T08:13:02Z
2020-07-31T06:15:17Z,42.805,6.029,13.2978,4.59988,2470.147,2020-7-31T08:16:05Z
2020-07-31T06:18:21Z,42.805,6.029,13.2981,4.59999,2470.133,2020-7-31T08:19:09Z
2020-07-31T06:21:24Z,42.805,6.029,13.2979,4.59987,2470.11,2020-7-31T08:22:12Z
2020-07-31T06:24:27Z,42.805,6.029,13.2979,4.59988,2470.156,2020-7-31T08:25:15Z
2020-07-31T06:27:30Z,42.805,6.029,13.2982,4.59991,2470.156,2020-7-31T08:28:18Z
2020-07-31T06:30:34Z,42.805,6.029,13.2976,4.59986,2470.124,2020-7-31T08:31:22Z
2020-07-31T06:33:37Z,42.805,6.029,13.2982,4.59988,2470.147,2020-7-31T08:34:25Z
2020-07-31T06:36:40Z,42.805,6.029,13.2974,4.59991,2470.124,2020-7-31T08:37:28Z
2020-07-31T06:39:43Z,42.805,6.029,13.2982,4.59991,2470.133,2020-7-31T08:40:31Z
2020-07-31T06:42:47Z,42.805,6.029,13.2976,4.59985,2470.11,2020-7-31T08:43:35Z
2020-07-31T06:45:50Z,42.805,6.029,13.2974,4.59985,2470.171,2020-7-31T08:46:38Z
2020-07-31T06:48:53Z,42.805,6.029,13.2976,4.59988,2470.171,2020-7-31T08:49:41Z
2020-07-31T06:51:56Z,42.805,6.029,13.2978,4.59983,2470.124,2020-7-31T08:52:44Z
2020-07-31T06:54:59Z,42.805,6.029,13.2973,4.59988,2470.133,2020-7-31T08:55:47Z
2020-07-31T06:58:03Z,42.805,6.029,13.2976,4.59996,2470.11,2020-7-31T08:58:51Z
2020-07-31T07:01:06Z,42.805,6.029,13.2976,4.59994,2470.133,2020-7-31T09:01:54Z
2020-07-31T07:04:09Z,42.805,6.029,13.2979,4.59991,2470.11,2020-7-31T09:04:57Z
2020-07-31T07:07:12Z,42.805,6.029,13.2977,4.59988,2470.147,2020-7-31T09:08:00Z
2020-07-31T07:10:15Z,42.805,6.029,13.2980,4.59994,2470.124,2020-7-31T09:11:03Z
2020-07-31T07:13:19Z,42.805,6.029,13.2980,4.59979,2470.124,2020-7-31T09:14:07Z
2020-07-31T07:16:22Z,42.805,6.029,13.2976,4.59989,2470.147,2020-7-31T09:17:10Z
2020-07-31T07:19:25Z,42.805,6.029,13.2979,4.59988,2470.11,2020-7-31T09:20:13Z
2020-07-31T07:22:29Z,42.805,6.029,13.2975,4.59986,2470.133,2020-7-31T09:23:17Z
2020-07-31T07:25:32Z,42.805,6.029,13.2974,4.59983,2470.124,2020-7-31T09:26:20Z
2020-07-31T07:28:35Z,42.805,6.029,13.2976,4.59986,2470.133,2020-7-31T09:29:23Z
2020-07-31T07:31:39Z,42.805,6.029,13.2977,4.59983,2470.1,2020-7-31T09:32:27Z
2020-07-31T07:34:42Z,42.805,6.029,13.2975,4.59988,2470.1,2020-7-31T09:35:30Z
2020-07-31T07:37:45Z,42.805,6.029,13.2976,4.59986,2470.087,2020-7-31T09:38:33Z
2020-07-31T07:40:48Z,42.805,6.029,13.2981,4.59986,2470.087,2020-7-31T09:41:36Z
2020-07-31T07:43:52Z,42.805,6.029,13.2976,4.59983,2470.11,2020-7-31T09:44:40Z
2020-07-31T07:46:55Z,42.805,6.029,13.2974,4.59983,2470.11,2020-7-31T09:47:43Z
2020-07-31T07:49:58Z,42.805,6.029,13.2977,4.59986,2470.1,2020-7-31T09:50:46Z
2020-07-31T07:53:01Z,42.805,6.029,13.2981,4.59988,2470.087,2020-7-31T09:53:49Z
2020-07-31T07:56:05Z,42.805,6.029,13.2980,4.59986,2470.133,2020-7-31T09:56:53Z
2020-07-31T07:59:08Z,42.805,6.029,13.2977,4.59987,2470.11,2020-7-31T09:59:56Z
2020-07-31T08:02:11Z,42.805,6.029,13.2979,4.59986,2470.087,2020-7-31T10:02:59Z
2020-07-31T08:05:14Z,42.805,6.029,13.2978,4.59990,2470.087,2020-7-31T10:06:02Z
2020-07-31T08:08:17Z,42.805,6.029,13.2981,4.59988,2470.11,2020-7-31T10:09:06Z
2020-07-31T08:11:21Z,42.805,6.029,13.2976,4.59991,2470.087,2020-7-31T10:12:09Z
2020-07-31T08:14:24Z,42.805,6.029,13.2982,4.60000,2470.11,2020-7-31T10:15:12Z
2020-07-31T08:17:27Z,42.805,6.029,13.2982,4.59996,2470.1,2020-7-31T10:18:15Z
2020-07-31T08:20:30Z,42.805,6.029,13.2976,4.59999,2470.087,2020-7-31T10:21:18Z
2020-07-31T08:23:34Z,42.805,6.029,13.2974,4.59986,2470.087,2020-7-31T10:24:22Z
2020-07-31T08:26:37Z,42.805,6.029,13.2978,4.59987,2470.1,2020-7-31T10:27:25Z
2020-07-31T08:29:40Z,42.805,6.029,13.2975,4.59984,2470.087,2020-7-31T10:30:28Z
2020-07-31T08:32:43Z,42.805,6.029,13.2982,4.59994,2470.087,2020-7-31T10:33:32Z
2020-07-31T08:35:47Z,42.805,6.029,13.2984,4.59995,2470.063,2020-7-31T10:36:35Z
2020-07-31T08:38:50Z,42.805,6.029,13.2979,4.59991,2470.087,2020-7-31T10:39:38Z
2020-07-31T08:41:53Z,42.805,6.029,13.2985,4.59991,2470.063,2020-7-31T10:42:41Z
2020-07-31T08:44:57Z,42.805,6.029,13.2985,4.60004,2470.087,2020-7-31T10:45:45Z
2020-07-31T08:48:00Z,42.805,6.029,13.2977,4.59983,2470.077,2020-7-31T10:48:48Z
2020-07-31T08:51:03Z,42.805,6.029,13.2982,4.59994,2470.087,2020-7-31T10:51:51Z
2020-07-31T08:54:06Z,42.805,6.029,13.2981,4.59989,2470.063,2020-7-31T10:54:54Z
2020-07-31T08:57:09Z,42.805,6.029,13.2986,4.60001,2470.1,2020-7-31T10:57:57Z
2020-07-31T09:00:13Z,42.805,6.029,13.2986,4.60003,2470.1,2020-7-31T11:01:01Z
2020-07-31T09:03:16Z,42.805,6.029,13.2978,4.60014,2470.077,2020-7-31T11:04:04Z
2020-07-31T09:06:19Z,42.805,6.029,13.2981,4.60005,2470.063,2020-7-31T11:07:07Z
2020-07-31T09:09:23Z,42.805,6.029,13.2977,4.59991,2469.993,2020-7-31T11:10:11Z
2020-07-31T09:12:26Z,42.805,6.029,13.2972,4.59989,2470.1,2020-7-31T11:13:14Z
2020-07-31T09:15:29Z,42.805,6.029,13.2976,4.59989,2470.063,2020-7-31T11:16:17Z
2020-07-31T09:18:32Z,42.805,6.029,13.2983,4.59999,2470.04,2020-7-31T11:19:20Z
2020-07-31T09:21:36Z,42.805,6.029,13.2981,4.60009,2470.077,2020-7-31T11:22:24Z
2020-07-31T09:24:39Z,42.805,6.029,13.2982,4.60011,2470.087,2020-7-31T11:25:27Z
2020-07-31T09:27:42Z,42.805,6.029,13.2987,4.59999,2470.063,2020-7-31T11:28:30Z
2020-07-31T09:30:46Z,42.805,6.029,13.2987,4.60011,2470.063,2020-7-31T11:31:34Z
2020-07-31T09:33:49Z,42.805,6.029,13.2982,4.60014,2470.017,2020-7-31T11:34:37Z
2020-07-31T09:36:52Z,42.805,6.029,13.2986,4.60009,2470.04,2020-7-31T11:37:40Z
2020-07-31T09:39:55Z,42.805,6.029,13.2982,4.60004,2470.017,2020-7-31T11:40:43Z
2020-07-31T09:42:59Z,42.805,6.029,13.2991,4.60004,2470.017,2020-7-31T11:43:47Z
2020-07-31T09:46:02Z,42.805,6.029,13.2983,4.59990,2470.077,2020-7-31T11:46:50Z
2020-07-31T09:49:05Z,42.805,6.029,13.2982,4.59994,2470.017,2020-7-31T11:49:53Z
2020-07-31T09:52:09Z,42.805,6.029,13.2977,4.59993,2470.077,2020-7-31T11:52:57Z
2020-07-31T09:55:12Z,42.805,6.029,13.2985,4.59991,2470.04,2020-7-31T11:56:00Z
2020-07-31T09:58:15Z,42.805,6.029,13.2981,4.59992,2470.03,2020-7-31T11:59:03Z
2020-07-31T10:01:18Z,42.805,6.029,13.2979,4.60006,2470.053,2020-7-31T12:02:06Z
2020-07-31T10:04:21Z,42.805,6.029,13.2986,4.60015,2470.03,2020-7-31T12:05:09Z
2020-07-31T10:07:25Z,42.805,6.029,13.2973,4.59994,2470.04,2020-7-31T12:08:13Z
2020-07-31T10:10:28Z,42.805,6.029,13.2982,4.60014,2470.017,2020-7-31T12:11:16Z
2020-07-31T10:13:31Z,42.805,6.029,13.2987,4.60013,2470.077,2020-7-31T12:14:19Z
2020-07-31T10:16:34Z,42.805,6.029,13.2979,4.59997,2470.04,2020-7-31T12:17:22Z
2020-07-31T10:19:38Z,42.805,6.029,13.2982,4.59996,2470.053,2020-7-31T12:20:26Z
2020-07-31T10:22:41Z,42.805,6.029,13.2976,4.59989,2470.03,2020-7-31T12:23:29Z
2020-07-31T10:25:44Z,42.805,6.029,13.2980,4.59996,2470.007,2020-7-31T12:26:32Z
2020-07-31T10:28:47Z,42.805,6.029,13.2986,4.60010,2470.053,2020-7-31T12:29:35Z
2020-07-31T10:31:51Z,42.805,6.029,13.2977,4.60003,2470.017,2020-7-31T12:32:39Z
2020-07-31T10:34:54Z,42.805,6.029,13.2984,4.60020,2470.017,2020-7-31T12:35:42Z
2020-07-31T10:37:57Z,42.805,6.029,13.2986,4.60017,2470.04,2020-7-31T12:38:45Z
2020-07-31T10:41:00Z,42.805,6.029,13.2982,4.60014,2470.017,2020-7-31T12:41:48Z
2020-07-31T10:44:04Z,42.805,6.029,13.2997,4.60026,2470.04,2020-7-31T12:44:52Z
2020-07-31T10:47:07Z,42.805,6.029,13.2983,4.60019,2470.007,2020-7-31T12:47:55Z
2020-07-31T10:50:11Z,42.805,6.029,13.2979,4.59992,2470.03,2020-7-31T12:50:59Z
2020-07-31T10:53:14Z,42.805,6.029,13.2991,4.60014,2470.017,2020-7-31T12:54:02Z
2020-07-31T10:56:17Z,42.805,6.029,13.2979,4.59988,2470.04,2020-7-31T12:57:05Z
2020-07-31T10:59:20Z,42.805,6.029,13.2981,4.59987,2470.017,2020-7-31T13:00:08Z
2020-07-31T11:02:23Z,42.805,6.029,13.2980,4.59995,2470.04,2020-7-31T13:03:11Z
2020-07-31T11:05:27Z,42.805,6.029,13.2979,4.59999,2470.03,2020-7-31T13:06:15Z
2020-07-31T11:08:30Z,42.805,6.029,13.2979,4.59999,2470.007,2020-7-31T13:09:18Z
2020-07-31T11:11:33Z,42.805,6.029,13.2983,4.60001,2470.067,2020-7-31T13:12:21Z
2020-07-31T11:14:36Z,42.805,6.029,13.2983,4.60000,2470.04,2020-7-31T13:15:24Z
2020-07-31T11:17:40Z,42.805,6.029,13.2983,4.59997,2469.993,2020-7-31T13:18:28Z
2020-07-31T11:20:43Z,42.805,6.029,13.2982,4.60009,2470.04,2020-7-31T13:21:31Z
2020-07-31T11:23:46Z,42.805,6.029,13.2976,4.59999,2470.03,2020-7-31T13:24:34Z
2020-07-31T11:26:49Z,42.805,6.029,13.2980,4.59995,2470.04,2020-7-31T13:27:37Z
2020-07-31T11:29:53Z,42.805,6.029,13.2979,4.59989,2470.007,2020-7-31T13:30:41Z
2020-07-31T11:32:56Z,42.805,6.029,13.2982,4.59996,2469.993,2020-7-31T13:33:44Z
2020-07-31T11:35:59Z,42.805,6.029,13.2986,4.60001,2470.007,2020-7-31T13:36:47Z
2020-07-31T11:39:02Z,42.805,6.029,13.2979,4.59996,2469.993,2020-7-31T13:39:50Z
2020-07-31T11:42:06Z,42.805,6.029,13.2979,4.59998,2470.04,2020-7-31T13:42:54Z
2020-07-31T11:45:09Z,42.805,6.029,13.2985,4.60017,2470.03,2020-7-31T13:45:57Z
2020-07-31T11:48:12Z,42.805,6.029,13.2986,4.60014,2470.017,2020-7-31T13:49:00Z
2020-07-31T11:51:15Z,42.805,6.029,13.2978,4.60001,2470.04,2020-7-31T13:52:03Z
2020-07-31T11:54:19Z,42.805,6.029,13.2983,4.59993,2470.007,2020-7-31T13:55:07Z
2020-07-31T11:57:22Z,42.805,6.029,13.2980,4.59994,2470.04,2020-7-31T13:58:10Z
2020-07-31T12:00:26Z,42.805,6.029,13.2981,4.59998,2470.017,2020-7-31T14:01:14Z
2020-07-31T12:03:29Z,42.805,6.029,13.2979,4.59991,2470.017,2020-7-31T14:04:17Z
2020-07-31T12:06:32Z,42.805,6.029,13.2982,4.59999,2470.053,2020-7-31T14:07:20Z
2020-07-31T12:09:35Z,42.805,6.029,13.2981,4.59994,2470.04,2020-7-31T14:10:23Z
2020-07-31T12:12:39Z,42.805,6.029,13.2982,4.60001,2470.063,2020-7-31T14:13:27Z
2020-07-31T12:15:42Z,42.805,6.029,13.2986,4.59997,2470.053,2020-7-31T14:16:30Z
2020-07-31T12:18:45Z,42.805,6.029,13.2988,4.60003,2470.017,2020-7-31T14:19:33Z
2020-07-31T12:21:49Z,42.805,6.029,13.2978,4.59997,2470.03,2020-7-31T14:22:37Z
2020-07-31T12:24:52Z,42.805,6.029,13.2986,4.59992,2470.017,2020-7-31T14:25:40Z
2020-07-31T12:27:55Z,42.805,6.029,13.2979,4.59991,2470.04,2020-7-31T14:28:43Z
2020-07-31T12:30:58Z,42.805,6.029,13.2981,4.59992,2470.063,2020-7-31T14:31:46Z
2020-07-31T12:34:01Z,42.805,6.029,13.2979,4.59984,2469.993,2020-7-31T14:34:50Z
2020-07-31T12:37:05Z,42.805,6.029,13.2977,4.59996,2470.04,2020-7-31T14:37:53Z
2020-07-31T12:40:08Z,42.805,6.029,13.2986,4.59994,2470.017,2020-7-31T14:40:56Z
2020-07-31T12:43:11Z,42.805,6.029,13.2984,4.60001,2470.04,2020-7-31T14:43:59Z
2020-07-31T12:46:15Z,42.805,6.029,13.2982,4.59996,2470.053,2020-7-31T14:47:03Z
2020-07-31T12:49:18Z,42.805,6.029,13.2980,4.59992,2470.053,2020-7-31T14:50:06Z
2020-07-31T12:52:21Z,42.805,6.029,13.2983,4.59992,2470.063,2020-7-31T14:53:09Z
2020-07-31T12:55:24Z,42.805,6.029,13.2991,4.60011,2470.049,2020-7-31T14:56:12Z
2020-07-31T12:58:28Z,42.805,6.029,13.2981,4.60007,2470.04,2020-7-31T14:59:16Z
2020-07-31T13:01:31Z,42.805,6.029,13.2994,4.60015,2470.063,2020-7-31T15:02:19Z
2020-07-31T13:04:34Z,42.805,6.029,13.2985,4.60001,2470.053,2020-7-31T15:05:22Z
2020-07-31T13:07:37Z,42.805,6.029,13.2981,4.59994,2470.017,2020-7-31T15:08:25Z
2020-07-31T13:10:41Z,42.805,6.029,13.2985,4.59996,2470.04,2020-7-31T15:11:29Z
2020-07-31T13:13:44Z,42.805,6.029,13.2986,4.59991,2470.03,2020-7-31T15:14:32Z
2020-07-31T13:16:47Z,42.805,6.029,13.2986,4.59994,2470.04,2020-7-31T15:17:35Z
2020-07-31T13:19:51Z,42.805,6.029,13.2986,4.59994,2470.1,2020-7-31T15:20:39Z
2020-07-31T13:22:54Z,42.805,6.029,13.2982,4.59986,2470.063,2020-7-31T15:23:42Z
2020-07-31T13:25:57Z,42.805,6.029,13.2984,4.60011,2470.124,2020-7-31T15:26:45Z
2020-07-31T13:29:01Z,42.805,6.029,13.2984,4.60011,2470.063,2020-7-31T15:29:49Z
2020-07-31T13:32:04Z,42.805,6.029,13.2986,4.59993,2470.063,2020-7-31T15:32:52Z
2020-07-31T13:35:07Z,42.805,6.029,13.2985,4.60001,2470.077,2020-7-31T15:35:55Z
2020-07-31T13:38:10Z,42.805,6.029,13.2982,4.59991,2470.063,2020-7-31T15:38:58Z
2020-07-31T13:41:14Z,42.805,6.029,13.2983,4.60011,2470.087,2020-7-31T15:42:02Z
2020-07-31T13:44:17Z,42.805,6.029,13.2983,4.60009,2470.087,2020-7-31T15:45:05Z
2020-07-31T13:47:20Z,42.805,6.029,13.2979,4.59987,2470.063,2020-7-31T15:48:08Z
2020-07-31T13:50:23Z,42.805,6.029,13.2976,4.59992,2470.063,2020-7-31T15:51:11Z
2020-07-31T13:53:27Z,42.805,6.029,13.2988,4.60019,2470.087,2020-7-31T15:54:15Z
2020-07-31T13:56:30Z,42.805,6.029,13.2979,4.60003,2470.1,2020-7-31T15:57:18Z
2020-07-31T13:59:33Z,42.805,6.029,13.2985,4.60001,2470.1,2020-7-31T16:00:21Z
2020-07-31T14:02:37Z,42.805,6.029,13.2976,4.59994,2470.11,2020-7-31T16:03:25Z
2020-07-31T14:05:40Z,42.805,6.029,13.2983,4.59996,2470.133,2020-7-31T16:06:28Z
2020-07-31T14:08:43Z,42.805,6.029,13.2983,4.60009,2470.124,2020-7-31T16:09:31Z
2020-07-31T14:11:46Z,42.805,6.029,13.2984,4.60017,2470.133,2020-7-31T16:12:34Z
2020-07-31T14:14:50Z,42.805,6.029,13.2998,4.59998,2470.124,2020-7-31T16:15:38Z
2020-07-31T14:17:53Z,42.805,6.029,13.2982,4.60002,2470.11,2020-7-31T16:18:41Z
2020-07-31T14:20:56Z,42.805,6.029,13.2989,4.60009,2470.11,2020-7-31T16:21:44Z
2020-07-31T14:23:59Z,42.805,6.029,13.2979,4.59999,2470.133,2020-7-31T16:24:47Z
2020-07-31T14:27:03Z,42.805,6.029,13.2996,4.60016,2470.147,2020-7-31T16:27:51Z
2020-07-31T14:30:06Z,42.805,6.029,13.2979,4.60009,2470.11,2020-7-31T16:30:54Z
2020-07-31T14:33:09Z,42.805,6.029,13.2982,4.60010,2470.11,2020-7-31T16:33:57Z
2020-07-31T14:36:12Z,42.805,6.029,13.2979,4.60015,2470.133,2020-7-31T16:37:00Z
2020-07-31T14:39:16Z,42.805,6.029,13.2988,4.59996,2470.166,2020-7-31T16:40:04Z
2020-07-31T14:42:19Z,42.805,6.029,13.2978,4.59999,2470.156,2020-7-31T16:43:07Z
2020-07-31T14:45:22Z,42.805,6.029,13.2981,4.60001,2470.11,2020-7-31T16:46:10Z
2020-07-31T14:48:26Z,42.805,6.029,13.2979,4.59991,2470.156,2020-7-31T16:49:14Z
2020-07-31T14:51:29Z,42.805,6.029,13.2985,4.60004,2470.133,2020-7-31T16:52:17Z
2020-07-31T14:54:32Z,42.805,6.029,13.2986,4.60003,2470.147,2020-7-31T16:55:20Z
2020-07-31T14:57:35Z,42.805,6.029,13.2986,4.60005,2470.11,2020-7-31T16:58:23Z
2020-07-31T15:00:38Z,42.805,6.029,13.2976,4.59999,2470.147,2020-7-31T17:01:27Z
2020-07-31T15:03:42Z,42.805,6.029,13.2983,4.60010,2470.156,2020-7-31T17:04:30Z
2020-07-31T15:06:45Z,42.805,6.029,13.2987,4.60014,2470.147,2020-7-31T17:07:33Z
2020-07-31T15:09:48Z,42.805,6.029,13.2985,4.59996,2470.156,2020-7-31T17:10:36Z
2020-07-31T15:12:52Z,42.805,6.029,13.2983,4.59993,2470.156,2020-7-31T17:13:40Z
2020-07-31T15:15:55Z,42.805,6.029,13.2991,4.60011,2470.133,2020-7-31T17:16:43Z